North Wilkesboro, NC

3:13 AM EST on November 23, 2017 (GMT -0500)
Wilkes County

Weather History for KUKF - May, 2014

Change the Weather History Date:

Sunday, May 4, 2014

  Actual Average Record
Temperature  
Mean Temperature 64 °F -  
Max Temperature 82 °F 73 °F 90 °F (1965)
Min Temperature 46 °F 44 °F 29 °F (1986)
Degree Days  
Heating Degree Days 1    
Growing Degree Days 14 (Base 50)    
Moisture  
Dew Point 44 °F    
Average Humidity 49    
Maximum Humidity 87    
Minimum Humidity 26    
Precipitation  
Precipitation 0.00 in - - ()
Sea Level Pressure  
Sea Level Pressure 30.00 in    
Wind  
Wind Speed 3 mph (West)    
Max Wind Speed 17 mph    
Max Gust Speed 33 mph    
Visibility 10 miles    
Events      
Averages and records for this station are not official NWS values.
T = Trace of Precipitation, MM = Missing Value Source: NWS Daily Summary

Daily Weather History Graph

Daily Weather History Graph

Search for Another Location

Airport or City:

Trip Planner

Search our weather history database for the weather conditions in past years. The results will help you decide how hot, cold, wet, or windy it might be!

Date:

Astronomy

May. 04, 2014 Rise Set
Actual Time 6:28 AM EDT 8:14 PM EDT
Civil Twilight 6:00 AM EDT 8:42 PM EDT
Nautical Twilight 5:26 AM EDT 9:16 PM EDT
Astronomical Twilight 4:51 AM EDT 9:51 PM EDT
Moon 10:51 AM EDT (5/4) 12:17 AM EDT (5/4)
Length of Visible Light 14h 41m
Length of Day
13h 46m
Waxing Crescent, 27% of the Moon is Illuminated
May 4
Waxing Crescent
May 6
First Quarter
May 14
Full
May 21
Last Quarter
May 28
New

Hourly Weather History & Observations

Time (EDT) Temp. Dew Point Humidity Pressure Visibility Wind Dir Wind Speed Gust Speed Precip Events Conditions
12:15 AM 53.6 °F 41.0 °F 62% 30.02 in 10.0 mi Calm Calm - N/A   Clear
12:35 AM 53.6 °F 41.0 °F 62% 30.02 in 10.0 mi Calm Calm - N/A   Clear
12:55 AM 51.8 °F 41.0 °F 67% 30.02 in 10.0 mi Calm Calm - N/A   Clear
1:15 AM 51.8 °F 41.0 °F 67% 30.03 in 10.0 mi NNE 3.5 mph - N/A   Clear
1:35 AM 51.8 °F 42.8 °F 71% 30.02 in 10.0 mi Calm Calm - N/A   Clear
1:55 AM 50.0 °F 41.0 °F 71% 30.02 in 10.0 mi Calm Calm - N/A   Clear
2:15 AM 50.0 °F 41.0 °F 71% 30.02 in 10.0 mi Calm Calm - N/A   Clear
2:35 AM 51.8 °F 41.0 °F 67% 30.02 in 10.0 mi Calm Calm - N/A   Clear
2:55 AM 50.0 °F 41.0 °F 71% 30.03 in 10.0 mi Calm Calm - N/A   Clear
3:15 AM 50.0 °F 41.0 °F 71% 30.02 in 10.0 mi Calm Calm - N/A   Clear
3:35 AM 50.0 °F 41.0 °F 71% 30.03 in 10.0 mi Calm Calm - N/A   Clear
3:55 AM 50.0 °F 41.0 °F 71% 30.03 in 10.0 mi Calm Calm - N/A   Clear
4:15 AM 46.4 °F 42.8 °F 87% 30.03 in 10.0 mi Calm Calm - N/A   Clear
4:35 AM 50.0 °F 41.0 °F 71% 30.03 in 10.0 mi Calm Calm - N/A   Clear
4:55 AM 55.4 °F 41.0 °F 58% 30.03 in 10.0 mi West 3.5 mph - N/A   Clear
5:15 AM 55.4 °F 41.0 °F 58% 30.03 in 10.0 mi West 4.6 mph - N/A   Clear
5:35 AM 53.6 °F 41.0 °F 62% 30.04 in 10.0 mi WNW 3.5 mph - N/A   Clear
5:55 AM 53.6 °F 41.0 °F 62% 30.04 in 10.0 mi Calm Calm - N/A   Clear
6:15 AM 53.6 °F 41.0 °F 62% 30.04 in 10.0 mi Calm Calm - N/A   Clear
6:35 AM 51.8 °F 41.0 °F 67% 30.05 in 10.0 mi Calm Calm - N/A   Clear
6:55 AM 51.8 °F 41.0 °F 67% 30.06 in 10.0 mi Calm Calm - N/A   Clear
7:15 AM 53.6 °F 41.0 °F 62% 30.06 in 10.0 mi Calm Calm - N/A   Clear
7:35 AM 53.6 °F 42.8 °F 67% 30.06 in 10.0 mi Calm Calm - N/A   Clear
7:55 AM 53.6 °F 46.4 °F 77% 30.07 in 10.0 mi SSW 3.5 mph - N/A   Clear
8:15 AM 55.4 °F 44.6 °F 67% 30.07 in 10.0 mi SSW 3.5 mph - N/A   Clear
8:35 AM 59.0 °F 44.6 °F 59% 30.07 in 10.0 mi Calm Calm - N/A   Clear
8:55 AM 60.8 °F 44.6 °F 55% 30.07 in 10.0 mi Calm Calm - N/A   Clear
9:15 AM 62.6 °F 46.4 °F 55% 30.07 in 10.0 mi SSW 3.5 mph - N/A   Scattered Clouds
9:35 AM 64.4 °F 46.4 °F 52% 30.06 in 10.0 mi Calm Calm - N/A   Clear
9:55 AM 68.0 °F 46.4 °F 46% 30.06 in 10.0 mi Calm Calm - N/A   Clear
10:15 AM 69.8 °F 44.6 °F 40% 30.06 in 10.0 mi Calm Calm - N/A   Clear
10:35 AM 69.8 °F 46.4 °F 43% 30.06 in 10.0 mi SSW 5.8 mph - N/A   Clear
10:55 AM 73.4 °F 48.2 °F 41% 30.05 in 10.0 mi SW 5.8 mph - N/A   Clear
11:15 AM 73.4 °F 46.4 °F 38% 30.05 in 10.0 mi West 8.1 mph 17.3 mph N/A   Clear
11:35 AM 75.2 °F 44.6 °F 34% 30.04 in 10.0 mi WSW 10.4 mph 18.4 mph N/A   Clear
11:55 AM 75.2 °F 46.4 °F 36% 30.04 in 10.0 mi West 8.1 mph 18.4 mph N/A   Clear
12:35 PM 77.0 °F 44.6 °F 32% 30.02 in 10.0 mi West 8.1 mph 19.6 mph N/A   Clear
12:55 PM 77.0 °F 46.4 °F 34% 30.01 in 10.0 mi WSW 17.3 mph 24.2 mph N/A   Clear
1:15 PM 78.8 °F 46.4 °F 32% 30.00 in 10.0 mi WSW 13.8 mph 23.0 mph N/A   Clear
1:35 PM 78.8 °F 44.6 °F 30% 30.00 in 10.0 mi West 13.8 mph 24.2 mph N/A   Clear
1:55 PM 80.6 °F 46.4 °F 30% 29.99 in 10.0 mi West 8.1 mph 20.7 mph N/A   Clear
2:15 PM 78.8 °F 44.6 °F 30% 29.98 in 10.0 mi WNW 11.5 mph 26.5 mph N/A   Clear
2:35 PM 80.6 °F 46.4 °F 30% 29.97 in 10.0 mi West 16.1 mph 21.9 mph N/A   Clear
2:55 PM 80.6 °F 44.6 °F 28% 29.96 in 10.0 mi West 12.7 mph 20.7 mph N/A   Clear
3:15 PM 80.6 °F 44.6 °F 28% 29.96 in 10.0 mi NW 13.8 mph 24.2 mph N/A   Clear
3:35 PM 80.6 °F 44.6 °F 28% 29.95 in 10.0 mi WNW 15.0 mph 33.4 mph N/A   Clear
3:55 PM 82.4 °F 44.6 °F 26% 29.95 in 10.0 mi WNW 13.8 mph 25.3 mph N/A   Clear
4:15 PM 82.4 °F 44.6 °F 26% 29.94 in 10.0 mi West 13.8 mph 23.0 mph N/A   Clear
4:35 PM 80.6 °F 44.6 °F 28% 29.93 in 10.0 mi NW 15.0 mph 24.2 mph N/A   Clear
4:55 PM 80.6 °F 44.6 °F 28% 29.93 in 10.0 mi West 8.1 mph 20.7 mph N/A   Scattered Clouds
5:15 PM 80.6 °F 44.6 °F 28% 29.93 in 10.0 mi WNW 13.8 mph 23.0 mph N/A   Clear
5:35 PM 80.6 °F 44.6 °F 28% 29.93 in 10.0 mi West 8.1 mph 24.2 mph N/A   Clear
5:55 PM 80.6 °F 44.6 °F 28% 29.93 in 10.0 mi West 11.5 mph 21.9 mph N/A   Clear
6:15 PM 78.8 °F 44.6 °F 30% 29.93 in 10.0 mi WNW 11.5 mph 17.3 mph N/A   Scattered Clouds
6:35 PM 78.8 °F 44.6 °F 30% 29.93 in 10.0 mi West 6.9 mph 16.1 mph N/A   Scattered Clouds
6:55 PM 78.8 °F 44.6 °F 30% 29.93 in 10.0 mi West 5.8 mph - N/A   Clear
7:15 PM 78.8 °F 46.4 °F 32% 29.93 in 10.0 mi WSW 4.6 mph - N/A   Clear
7:35 PM 77.0 °F 46.4 °F 34% 29.94 in 10.0 mi WSW 4.6 mph - N/A   Clear
7:55 PM 73.4 °F 46.4 °F 38% 29.95 in 10.0 mi WSW 3.5 mph - N/A   Scattered Clouds
8:15 PM 73.4 °F 46.4 °F 38% 29.95 in 10.0 mi WSW 3.5 mph - N/A   Scattered Clouds
8:35 PM 71.6 °F 46.4 °F 41% 29.96 in 10.0 mi West 3.5 mph - N/A   Clear
8:55 PM 71.6 °F 46.4 °F 41% 29.96 in 10.0 mi West 3.5 mph - N/A   Clear
9:15 PM 71.6 °F 46.4 °F 41% 29.97 in 10.0 mi West 3.5 mph - N/A   Clear
9:35 PM 71.6 °F 46.4 °F 41% 29.97 in 10.0 mi West 3.5 mph - N/A   Clear
9:55 PM 71.6 °F 46.4 °F 41% 29.97 in 10.0 mi Calm Calm - N/A   Clear
10:15 PM 69.8 °F 46.4 °F 43% 29.97 in 10.0 mi Calm Calm - N/A   Clear
10:35 PM 66.2 °F 48.2 °F 52% 29.98 in 10.0 mi Calm Calm - N/A   Clear
10:55 PM 64.4 °F 48.2 °F 56% 29.98 in 10.0 mi Calm Calm - N/A   Clear
11:15 PM 62.6 °F 50.0 °F 63% 29.99 in 10.0 mi Calm Calm - N/A   Clear
11:35 PM 62.6 °F 48.2 °F 59% 29.99 in 10.0 mi Calm Calm - N/A   Clear
11:55 PM 60.8 °F 50.0 °F 68% 29.99 in 10.0 mi Calm Calm - N/A   Clear